STARLINK-1486, 45757

Orbit data source: Space-Track

STARLINK-1486, 45757 is a payload satellite owned by SpaceX/Seattle (US) in LEO that was launched on Sat, 13 Jun 2020 UTC via an FALCON 9 launch vehicle from the Air Force Eastern Test Range (AFETR). Payloads include a variety of satellites, spacecraft, and rockets equipped with specific instruments for various scientific and technological missions. These include communications satellites like Starlink; space stations such as the ISS; scientific satellites like the Hubble; Earth observation satellites from companies like Planet Labs, Umbra, and HawkEye 360; GPS; miniature CubeSats for education and research; and military/defense satellites.

Loading next visibility...
STARLINK-1486 details
Identifier
45757, 2020-038AD
Orbit
LEO
Last TLE update9 hours ago
Origin
Flag of USSpaceX/Seattle (US)
ManufacturerSpaceX/Seattle
MissionPartially operational Commercial Communications
Bus & MotorSTARLINK, Unknown motor
Mass260 kg wet, ~248 kg dry
Launch date (UTC)
2020-06-13 (5 years ago)
Launch vehicle
FALCON 9
Launch site
Air Force Eastern Test Range (AFETR)
Object type
Payload
Rocket body
Debris
Shape & HBRBox + 1 Pan, 8.86 m
Radar Cross Section13.562 m², Large (>1 m²)

Expand to show TLE details & history

TLE from 9 hours ago
0 STARLINK-1486
1 45757U 20038AD  24361.11288358  .00732425  27279-3  10996-2 0  9993
2 45757  53.0590 268.3181 0006788 121.1254 239.0444 16.04101900253150
Epoch: 2024-12-26T02:42Z
Definitive object data (Epoch: 2024-12-26T02:42:33.141Z)
Latitude-0.00001°
Longitude132.58305°
Altitude266.311 km
Speed7.747 km/s
True Right ascension17h 53m 16s
True Declination0° 00' 00"
Sunlit
Object was in daylight at TLE epoch
Visualization TLE readout
Latitude-45.93094°
Longitude80.12852°
Altitude281.494 km
Speed7.736 km/s
Apparent Right ascension18h 46m 57s
Apparent Declination-63° 43' 51"
Sunlit
Object is in daylight
Visualization observer readout
Local Sidereal Time10:46:12
Azimuth144.931° SSE
Elevation-48.253°
Doppler factor1
Orbital elements
Apogee altitude267.862 km
Perigee altitude258.846 km
Semi-major axis6,641.491 km
Eccentricity0.0006788
Inclination53.059°
RAAN268.3181°
Arg. of periapsis121.1254°
True anomaly238.97772°
Mean anomaly239.0444°
Eccentric anomaly239.01106°
Mean motion4.01 °/min
BSTAR0.0010996
Orbital period89.78 mins
Loading maneuver chart data...

STARLINK-1486 Visibility forecast

Observer location: undefined°, undefined

Span
Click to sort rows by Start time (UTC) header in descending order
Start Az.
Max El. time (UTC)
Max El. Az.
Max El.
End time (UTC)
End Az.
4 mins2024-12-26 20:49:51.289Z231.269° WSW2024-12-26 20:51:51.289Z244.502° WSW42.588°2024-12-26 20:53:51.289Z48.375° ENE
|